Regional Weather Roundup
Issued by NWS Newport/Morehead, NC

Current Version | Previous Version | Graphics & Text | Print | Product List | Glossary Off
Versions: 1 2 3 4 5 6 7 8 9 10 11 12 13 14 15 16 17 18 19 20 21 22 23 24 25 26 27 28 29 30 31 32 33 34 35 36 37 38 39 40 41 42 43 44 45 46 47 48 49 50

000
ASUS42 KMHX 142010
RWRMHX
WEATHER ROUNDUP FOR EASTERN NORTH CAROLINA
NATIONAL WEATHER SERVICE NEWPORT/MOREHEAD CITY NC
400 PM EDT SUN SEP 14 2014

NOTE: "FAIR" INDICATES FEW OR NO CLOUDS BELOW 12,000 FEET
WITH NO SIGNIFICANT WEATHER AND/OR OBSTRUCTIONS TO VISIBILITY

NCZ015>017-031-032-045>047-102-103-142100-
NORTH COAST

CITY           SKY/WX    TMP DP  RH WIND       PRES   REMARKS
EDENTON        PTSUNNY   74  60  63 E3        30.20F
ELIZABETH CITY CLOUDY    72  58  61 NE12      30.21S
KITTY HAWK     PTCLDY    72  60  66 N9G20     30.19S
MANTEO         CLOUDY    71  61  69 N12       30.20S

$$

NCZ045>047-081-094-103-104-142100-
CENTRAL COAST

CITY           SKY/WX    TMP DP  RH WIND       PRES   REMARKS
FRISCO         PTSUNNY   72  66  81 N12G24    30.17S
SWANQUARTER      N/A     73 N/A N/A N10       30.15S

$$

NCZ095-097-098-100-101-142100-
SOUTHERN COAST

CITY           SKY/WX    TMP DP  RH WIND       PRES   REMARKS
BEAUFORT       CLOUDY    75  68  78 NE8       30.17F
CEDAR ISLAND     N/A     75 N/A N/A VRB10G16  30.21F
JACKSONVILLE   CLOUDY    71  66  84 N9        30.18F
NEWPORT        NOT AVBL
PINEY ISLAND   CLOUDY    76  65  68 N12       30.17F
WILMINGTON     CLOUDY    74  66  76 N9        30.17F


$$

NCZ011>013-027>030-043-044-078>080-089-090>093-098-142100-
COASTAL PLAIN

CITY           SKY/WX    TMP DP  RH WIND       PRES   REMARKS
AHOSKIE        MOSUNNY   71  60  67 N5        30.22S
CLINTON        CLOUDY    72  63  74 NE5       30.21S
ELIZABETHTOWN  CLOUDY    70  62  75 CALM      30.20F
GOLDSBORO      CLOUDY    75  65  72 CALM      30.19F
GREENVILLE     CLOUDY    73  61  64 N6        30.21F
HAVELOCK       CLOUDY    75  66  73 N8        30.19F
KENANSVILLE    CLOUDY    71  61  70 CALM      30.22F
KINSTON        CLOUDY    75  61  60 N5        30.21F
NEW BERN       CLOUDY    75  65  70 N6        30.19F
RICHLANDS      CLOUDY    70  63  78 N3        30.20F
ROANOKE RAPIDS NOT AVBL
ROCKY MOUNT    CLOUDY    73  61  65 N7        30.22F
WASHINGTON     PTSUNNY   74  62  66 NE6       30.20F
WHITEVILLE     CLOUDY    71  65  81 CALM      30.19S

$$

AMZ130-135-150-152-154-156-158-170-250-252-270-ANZ085-086-088-633-658-670-142100-
MARINE OBSERVATIONS

STATION/POSITION TIME  TEMP    WIND        PRES    WAVE   SWELL
                       AIR SEA DIR/SP/G            HT/PER HT/PER
                 (UTC) (F)     (DEG/KT/KT) (MB)    (FT/S) (FT/S)
CHESAPEAKE LIGHT 1900   67      30/ 12/ 14 1024.0
BUOY 44014       2000   71 80   10/ 16/ 17 1021.5    5/ 7   3/ 7
DUCK             2000   69 77   20/ 15/ 19 1022.0
2E DUCK          2000                        N/A     5/ 7
OREGON INLET     2000   71 78  360/ 11/ 16 1022.2
BUOY 44095       2000      76                N/A     6/ 7
20E OREGON INLET NOT AVBL
HATTERAS CG      2000   73 80   20/ 20/ 24 1021.7
DIAMOND BUOY     2000   74     360/ 19/ 23 1020.7    4/ 7   2/ 8
CAPE LOOKOUT     1900   75      30/ 16/ 18 1021.6
BEAUFORT LAB     2000   74 81   40/  9/ 13 1021.1
30 SE NEW RIVER  2000   77 82   40/ 16/ 17 1021.3    3/ 5
5 SE WRIGHTSVILL 1900   72 82   30/ 12/ 16   N/A
BUOY 41002       1947   78 83  250/ 10/ 12 1021.3    3/ 5   2/ 5
BUOY 41004       2000   79 83   70/  4/  6 1020.4    2/ 4   2/ 4

$$



USA.gov is the U.S. government's official web portal to all federal, state and local government web resources and services.